StationID,Date,MaxTemp,MinTemp,Precipitation,Snowfall,SnowDepth
"USR0000ASIT","2000-10-21",28.04,23.00,,,
"USR0000ASIT","2000-10-22",30.02,21.92,,,
"USR0000ASIT","2000-10-23",21.92,14.00,,,
"USR0000ASIT","2000-10-24",32.00,17.96,,,
"USR0000ASIT","2000-10-25",32.00,23.00,,,
"USR0000ASIT","2000-10-26",30.92,21.92,,,
"USR0000ASIT","2000-10-27",24.08,19.04,,,
"USR0000ASIT","2000-10-28",21.02,15.08,,,
"USR0000ASIT","2000-10-29",24.08,17.96,,,
"USR0000ASIT","2000-10-30",30.92,24.98,,,
"USR0000ASIT","2000-10-31",24.98,15.08,,,
"USR0000ASIT","2000-11-01",24.08,17.06,,,
"USR0000ASIT","2000-11-02",28.04,19.04,,,
"USR0000ASIT","2000-11-03",21.02,15.08,,,
"USR0000ASIT","2000-11-04",28.94,23.00,,,
"USR0000ASIT","2000-11-05",33.08,24.08,,,
"USR0000ASIT","2000-11-06",30.02,24.98,,,
"USR0000ASIT","2000-11-07",33.98,26.96,,,
"USR0000ASIT","2000-11-08",30.92,26.96,,,
"USR0000ASIT","2000-11-09",30.92,28.94,,,
"USR0000ASIT","2000-11-10",32.00,28.04,,,
"USR0000ASIT","2000-11-11",28.04,21.02,,,
"USR0000ASIT","2000-11-12",23.00,17.96,,,
"USR0000ASIT","2000-11-13",28.04,21.02,,,
"USR0000ASIT","2000-11-14",26.06,21.02,,,
"USR0000ASIT","2000-11-15",24.98,21.02,,,
"USR0000ASIT","2000-11-16",33.98,24.08,,,
"USR0000ASIT","2000-11-17",28.94,23.00,,,
"USR0000ASIT","2000-11-18",26.06,24.08,,,
"USR0000ASIT","2000-11-19",32.00,24.98,,,
"USR0000ASIT","2000-11-20",33.98,28.94,,,
"USR0000ASIT","2000-11-21",33.08,26.06,,,
"USR0000ASIT","2000-11-22",30.92,24.98,,,
"USR0000ASIT","2000-11-23",26.96,24.08,,,
"USR0000ASIT","2000-11-24",28.94,24.08,,,
"USR0000ASIT","2000-11-25",30.92,21.02,,,
"USR0000ASIT","2000-11-26",21.92,17.06,,,
"USR0000ASIT","2000-11-27",26.06,17.06,,,
"USR0000ASIT","2000-11-28",30.02,24.98,,,
"USR0000ASIT","2000-11-29",24.98,19.94,,,
"USR0000ASIT","2000-11-30",19.04,10.94,,,
"USR0000ASIT","2000-12-01",10.04,5.00,,,
"USR0000ASIT","2000-12-02",17.06,6.08,,,
"USR0000ASIT","2000-12-03",24.98,17.06,,,
"USR0000ASIT","2000-12-04",26.06,23.00,,,
"USR0000ASIT","2000-12-05",30.92,24.98,,,
"USR0000ASIT","2000-12-06",24.08,19.94,,,
"USR0000ASIT","2000-12-07",26.06,19.94,,,
"USR0000ASIT","2000-12-08",26.96,19.04,,,
"USR0000ASIT","2000-12-09",24.98,17.96,,,
"USR0000ASIT","2000-12-10",26.06,19.94,,,
"USR0000ASIT","2000-12-11",28.04,21.92,,,
"USR0000ASIT","2000-12-12",37.94,26.96,,,
"USR0000ASIT","2000-12-13",35.96,23.00,,,
"USR0000ASIT","2000-12-14",24.98,19.94,,,
"USR0000ASIT","2000-12-15",21.02,17.96,,,
"USR0000ASIT","2000-12-16",21.02,17.06,,,
"USR0000ASIT","2000-12-17",26.06,19.04,,,
"USR0000ASIT","2000-12-18",26.06,19.94,,,
"USR0000ASIT","2000-12-19",37.94,26.06,,,
"USR0000ASIT","2000-12-20",37.94,24.98,,,
"USR0000ASIT","2000-12-21",24.08,19.94,,,
"USR0000ASIT","2000-12-22",24.98,19.94,,,
"USR0000ASIT","2000-12-23",28.94,21.92,,,
"USR0000ASIT","2000-12-24",30.92,28.94,,,
"USR0000ASIT","2000-12-25",33.98,28.04,,,
"USR0000ASIT","2000-12-26",26.96,24.08,,,
"USR0000ASIT","2000-12-27",26.06,24.08,,,
"USR0000ASIT","2000-12-28",28.94,23.00,,,
"USR0000ASIT","2000-12-29",30.92,26.96,,,
"USR0000ASIT","2000-12-30",32.00,26.96,,,
"USR0000ASIT","2000-12-31",26.96,24.98,,,
"USR0000ASIT","2001-01-01",24.08,19.94,,,
"USR0000ASIT","2001-01-02",26.06,21.92,,,
"USR0000ASIT","2001-01-03",26.06,15.98,,,
"USR0000ASIT","2001-01-04",21.92,15.98,,,
"USR0000ASIT","2001-01-05",19.04,12.92,,,
"USR0000ASIT","2001-01-06",28.04,17.96,,,
"USR0000ASIT","2001-01-07",28.04,23.00,,,
"USR0000ASIT","2001-01-08",24.98,19.94,,,
"USR0000ASIT","2001-01-09",19.94,12.02,,,
"USR0000ASIT","2001-01-10",12.92,5.00,,,
"USR0000ASIT","2001-01-11",19.94,12.92,,,
"USR0000ASIT","2001-01-12",23.00,19.94,,,
"USR0000ASIT","2001-01-13",26.06,23.00,,,
"USR0000ASIT","2001-01-14",28.04,24.98,,,
"USR0000ASIT","2001-01-15",30.92,21.02,,,
"USR0000ASIT","2001-01-16",28.04,19.94,,,
"USR0000ASIT","2001-01-17",30.92,26.06,,,
"USR0000ASIT","2001-01-18",28.04,26.06,,,
"USR0000ASIT","2001-01-19",28.04,21.92,,,
"USR0000ASIT","2001-01-20",26.96,23.00,,,
"USR0000ASIT","2001-01-21",26.96,19.94,,,
"USR0000ASIT","2001-01-22",26.06,23.00,,,
"USR0000ASIT","2001-01-23",24.98,19.04,,,
"USR0000ASIT","2001-01-24",21.92,19.94,,,
"USR0000ASIT","2001-01-25",24.08,19.94,,,
"USR0000ASIT","2001-01-26",24.08,19.94,,,
"USR0000ASIT","2001-01-27",23.00,14.00,,,
"USR0000ASIT","2001-01-28",17.96,14.00,,,
"USR0000ASIT","2001-01-29",19.94,17.96,,,
"USR0000ASIT","2001-01-30",21.02,19.04,,,
"USR0000ASIT","2001-01-31",26.96,21.92,,,
"USR0000ASIT","2001-02-01",24.08,12.92,,,
"USR0000ASIT","2001-02-02",14.00,8.06,,,
"USR0000ASIT","2001-02-03",10.94,6.98,,,
"USR0000ASIT","2001-02-04",19.94,8.96,,,
"USR0000ASIT","2001-02-05",23.00,19.94,,,
"USR0000ASIT","2001-02-06",24.98,19.94,,,
"USR0000ASIT","2001-02-07",21.02,15.98,,,
"USR0000ASIT","2001-02-08",23.00,15.98,,,
"USR0000ASIT","2001-02-09",15.98,10.94,,,
"USR0000ASIT","2001-02-10",19.94,12.02,,,
"USR0000ASIT","2001-02-11",21.92,17.96,,,
"USR0000ASIT","2001-02-12",23.00,15.08,,,
"USR0000ASIT","2001-02-13",26.06,10.94,,,
"USR0000ASIT","2001-02-14",30.92,24.08,,,
"USR0000ASIT","2001-02-15",24.08,21.02,,,
"USR0000ASIT","2001-02-16",24.08,21.02,,,
"USR0000ASIT","2001-02-17",28.04,21.92,,,
"USR0000ASIT","2001-02-18",35.96,26.96,,,
"USR0000ASIT","2001-02-19",32.00,24.98,,,
"USR0000ASIT","2001-02-20",28.94,24.98,,,
"USR0000ASIT","2001-02-21",24.98,19.04,,,
"USR0000ASIT","2001-02-22",28.94,21.02,,,
"USR0000ASIT","2001-02-23",28.94,21.02,,,
"USR0000ASIT","2001-02-24",21.92,12.02,,,
"USR0000ASIT","2001-02-25",24.08,14.00,,,
"USR0000ASIT","2001-02-26",26.96,21.92,,,
"USR0000ASIT","2001-02-27",28.94,21.02,,,
"USR0000ASIT","2001-02-28",21.02,12.92,,,
"USR0000ASIT","2001-03-01",21.02,14.00,,,
"USR0000ASIT","2001-03-02",15.98,12.02,,,
"USR0000ASIT","2001-04-02",24.08,19.94,,,
"USR0000ASIT","2001-04-03",26.06,21.02,,,
"USR0000ASIT","2001-04-04",21.92,12.02,,,
"USR0000ASIT","2001-04-05",19.94,10.04,,,
"USR0000ASIT","2001-04-06",21.02,15.08,,,
"USR0000ASIT","2001-04-07",24.08,17.06,,,
"USR0000ASIT","2001-04-08",30.02,19.04,,,
"USR0000ASIT","2001-04-09",28.04,19.94,,,
"USR0000ASIT","2001-04-10",26.96,21.92,,,
"USR0000ASIT","2001-04-11",32.00,23.00,,,
"USR0000ASIT","2001-04-12",32.00,21.92,,,
"USR0000ASIT","2001-04-13",30.02,19.94,,,
"USR0000ASIT","2001-04-14",30.92,19.04,,,
"USR0000ASIT","2001-04-15",28.94,21.92,,,
"USR0000ASIT","2001-04-16",30.92,21.02,,,
"USR0000ASIT","2001-04-17",30.92,19.94,,,
"USR0000ASIT","2001-04-18",39.92,21.92,,,
"USR0000ASIT","2001-04-19",37.04,23.00,,,
"USR0000ASIT","2001-04-20",37.94,24.98,,,
"USR0000ASIT","2001-04-21",32.00,24.08,,,
"USR0000ASIT","2001-04-22",35.96,26.06,,,
"USR0000ASIT","2001-04-23",33.08,24.98,,,
"USR0000ASIT","2001-04-24",35.96,24.08,,,
"USR0000ASIT","2001-04-25",35.96,26.96,,,
"USR0000ASIT","2001-04-26",35.96,26.96,,,
"USR0000ASIT","2001-04-27",37.94,26.06,,,
"USR0000ASIT","2001-04-28",39.02,26.06,,,
"USR0000ASIT","2001-04-29",41.00,26.06,,,
"USR0000ASIT","2001-04-30",37.94,26.06,,,
"USR0000ASIT","2001-05-01",26.96,17.96,,,
"USR0000ASIT","2001-05-02",35.06,17.06,,,
"USR0000ASIT","2001-05-03",30.02,15.98,,,
"USR0000ASIT","2001-05-04",35.96,15.08,,,
"USR0000ASIT","2001-05-05",28.94,15.08,,,
"USR0000ASIT","2001-05-06",33.08,21.92,,,
"USR0000ASIT","2001-05-07",35.96,24.98,,,
"USR0000ASIT","2001-05-08",35.96,24.98,,,
"USR0000ASIT","2001-05-09",28.94,21.92,,,
"USR0000ASIT","2001-05-10",35.06,21.02,,,
"USR0000ASIT","2001-05-11",44.06,21.02,,,
"USR0000ASIT","2001-05-12",41.00,26.06,,,
"USR0000ASIT","2001-05-13",48.92,30.92,,,
"USR0000ASIT","2001-05-14",59.00,30.92,,,
"USR0000ASIT","2001-05-15",48.02,32.00,,,
"USR0000ASIT","2001-05-16",39.92,28.94,,,
"USR0000ASIT","2001-05-17",41.00,28.94,,,
"USR0000ASIT","2001-05-18",102.92,28.94,,,
"USR0000ASIT","2001-05-19",50.00,30.92,,,
"USR0000ASIT","2001-05-20",44.96,30.02,,,
"USR0000ASIT","2001-05-21",44.06,28.04,,,
"USR0000ASIT","2001-05-22",37.94,26.96,,,
"USR0000ASIT","2001-05-23",37.94,26.96,,,
"USR0000ASIT","2001-05-24",44.96,28.04,,,
"USR0000ASIT","2001-05-25",37.04,28.04,,,
"USR0000ASIT","2001-05-26",39.02,26.96,,,
"USR0000ASIT","2001-05-27",48.92,33.98,,,
"USR0000ASIT","2001-05-28",51.98,39.92,,,
"USR0000ASIT","2001-05-29",51.98,35.96,,,
"USR0000ASIT","2001-05-30",57.02,35.06,,,
"USR0000ASIT","2001-05-31",46.04,35.96,,,
"USR0000ASIT","2001-06-01",69.08,37.94,,,
"USR0000ASIT","2001-06-02",66.92,44.06,,,
"USR0000ASIT","2001-06-03",46.04,35.96,,,
"USR0000ASIT","2001-06-04",48.92,33.98,,,
"USR0000ASIT","2001-06-05",62.96,35.96,,,
"USR0000ASIT","2001-06-06",41.00,33.98,,,
"USR0000ASIT","2001-06-07",53.96,33.98,,,
"USR0000ASIT","2001-06-08",123.98,33.98,,,
"USR0000ASIT","2001-06-09",60.98,37.94,,,
"USR0000ASIT","2001-06-10",57.02,44.06,,,
"USR0000ASIT","2001-06-11",132.08,37.04,,,
"USR0000ASIT","2001-06-12",55.04,35.96,,,
"USR0000ASIT","2001-06-13",123.08,37.04,,,
"USR0000ASIT","2001-06-14",50.00,39.02,,,
"USR0000ASIT","2001-06-15",60.08,42.08,,,
"USR0000ASIT","2001-06-16",80.06,48.92,,,
"USR0000ASIT","2001-06-17",78.08,48.92,,,
"USR0000ASIT","2001-06-18",57.02,41.00,,,
"USR0000ASIT","2001-06-19",145.04,41.00,,,
"USR0000ASIT","2001-06-20",62.96,44.96,,,
"USR0000ASIT","2001-06-21",71.06,46.04,,,
"USR0000ASIT","2001-06-22",75.92,46.04,,,
"USR0000ASIT","2001-06-23",66.02,50.00,,,
"USR0000ASIT","2001-06-24",147.92,51.98,,,
"USR0000ASIT","2001-06-25",149.00,64.94,,,
"USR0000ASIT","2001-06-26",123.08,60.08,,,
"USR0000ASIT","2001-06-27",127.94,51.98,,,
"USR0000ASIT","2001-06-28",114.98,51.98,,,
"USR0000ASIT","2001-06-29",64.94,46.04,,,
"USR0000ASIT","2001-06-30",147.92,44.06,,,
"USR0000ASIT","2001-07-01",150.08,120.92,,,
"USR0000ASIT","2001-07-02",125.96,109.04,,,
"USR0000ASIT","2001-07-03",111.02,102.92,,,
"USR0000ASIT","2001-07-04",48.02,39.92,,,
"USR0000ASIT","2001-07-05",127.04,96.98,,,
"USR0000ASIT","2001-07-06",140.00,39.92,,,
"USR0000ASIT","2001-07-07",134.96,37.94,,,
"USR0000ASIT","2001-07-08",145.94,114.08,,,
"USR0000ASIT","2001-07-09",141.98,57.02,,,
"USR0000ASIT","2001-07-10",80.96,42.08,,,
"USR0000ASIT","2001-07-11",62.06,39.02,,,
"USR0000ASIT","2001-07-12",127.04,37.94,,,
"USR0000ASIT","2001-07-13",143.06,46.04,,,
"USR0000ASIT","2001-07-14",150.08,102.92,,,
"USR0000ASIT","2001-07-15",138.92,73.04,,,
"USR0000ASIT","2001-07-16",136.94,116.96,,,
"USR0000ASIT","2001-07-17",140.00,125.06,,,
"USR0000ASIT","2001-07-18",123.98,116.06,,,
"USR0000ASIT","2001-07-19",111.02,77.00,,,
"USR0000ASIT","2001-07-20",96.98,87.98,,,
"USR0000ASIT","2001-07-21",145.94,93.92,,,
"USR0000ASIT","2001-07-22",150.08,107.06,,,
"USR0000ASIT","2001-07-23",141.08,100.04,,,
"USR0000ASIT","2001-10-02",69.08,59.00,,,
"USR0000ASIT","2001-10-03",69.98,66.92,,,
"USR0000ASIT","2001-10-04",71.96,66.92,,,
"USR0000ASIT","2001-10-05",73.04,71.06,,,
"USR0000ASIT","2001-10-06",71.06,69.98,,,
"USR0000ASIT","2001-10-07",71.06,69.98,,,
"USR0000ASIT","2001-10-08",71.06,69.08,,,
"USR0000ASIT","2001-10-09",71.06,68.00,,,
"USR0000ASIT","2001-10-10",71.06,69.98,,,
"USR0000ASIT","2001-10-11",68.00,68.00,,,
"USR0000ASIT","2001-10-12",66.02,64.94,,,
"USR0000ASIT","2001-10-13",64.94,62.96,,,
"USR0000ASIT","2001-10-14",66.02,62.96,,,
"USR0000ASIT","2001-10-15",68.00,66.02,,,
"USR0000ASIT","2001-10-16",64.94,62.96,,,
"USR0000ASIT","2001-10-17",66.02,62.96,,,
"USR0000ASIT","2001-10-18",66.92,64.94,,,
"USR0000ASIT","2001-10-19",64.94,64.04,,,
"USR0000ASIT","2001-10-20",64.04,62.96,,,
"USR0000ASIT","2001-10-21",64.04,62.96,,,
"USR0000ASIT","2001-10-23",64.04,64.04,,,
"USR0000ASIT","2001-10-24",62.06,60.98,,,
"USR0000ASIT","2001-10-25",62.96,60.98,,,
"USR0000ASIT","2001-10-26",60.98,59.00,,,
"USR0000ASIT","2001-10-27",60.98,59.00,,,
"USR0000ASIT","2001-10-28",60.98,60.08,,,
"USR0000ASIT","2001-10-29",60.98,60.08,,,
"USR0000ASIT","2001-10-30",60.98,60.98,,,
"USR0000ASIT","2001-10-31",60.98,59.00,,,
"USR0000ASIT","2001-11-01",62.96,60.98,,,
"USR0000ASIT","2001-11-02",64.04,62.06,,,
"USR0000ASIT","2001-11-03",62.96,62.06,,,
"USR0000ASIT","2001-11-04",62.96,62.06,,,
"USR0000ASIT","2001-11-05",64.04,62.06,,,
"USR0000ASIT","2001-11-06",62.96,62.06,,,
"USR0000ASIT","2001-11-07",62.06,60.08,,,
"USR0000ASIT","2001-11-08",62.06,60.08,,,
"USR0000ASIT","2001-11-09",60.98,57.92,,,
"USR0000ASIT","2001-11-10",60.98,60.08,,,
"USR0000ASIT","2001-11-11",60.98,59.00,,,
"USR0000ASIT","2001-11-12",62.96,60.98,,,
"USR0000ASIT","2001-11-13",62.06,60.98,,,
"USR0000ASIT","2001-11-14",62.96,60.98,,,
"USR0000ASIT","2001-11-15",62.06,60.98,,,
"USR0000ASIT","2001-11-16",62.06,60.08,,,
"USR0000ASIT","2001-11-17",62.96,60.08,,,
"USR0000ASIT","2001-11-18",62.06,59.00,,,
"USR0000ASIT","2001-11-19",64.04,62.06,,,
"USR0000ASIT","2001-11-20",66.02,62.96,,,
"USR0000ASIT","2001-11-21",66.92,64.94,,,
"USR0000ASIT","2001-11-22",66.02,64.94,,,
"USR0000ASIT","2001-11-23",66.02,64.94,,,
"USR0000ASIT","2001-11-24",64.94,62.96,,,
"USR0000ASIT","2001-11-25",64.04,62.96,,,
"USR0000ASIT","2001-11-26",64.94,62.96,,,
"USR0000ASIT","2001-11-27",62.96,62.06,,,
"USR0000ASIT","2001-11-28",64.04,62.06,,,
"USR0000ASIT","2001-11-29",62.96,62.06,,,
"USR0000ASIT","2001-11-30",60.98,59.00,,,
"USR0000ASIT","2001-12-01",59.00,57.02,,,
"USR0000ASIT","2001-12-02",57.02,57.02,,,
"USR0000ASIT","2001-12-03",57.02,55.04,,,
"USR0000ASIT","2001-12-04",55.04,51.08,,,
"USR0000ASIT","2001-12-05",53.96,51.08,,,
"USR0000ASIT","2001-12-06",55.04,51.08,,,
"USR0000ASIT","2001-12-07",55.04,51.98,,,
"USR0000ASIT","2001-12-08",51.98,48.92,,,
"USR0000ASIT","2001-12-09",53.06,48.92,,,
"USR0000ASIT","2001-12-10",55.04,53.96,,,
"USR0000ASIT","2001-12-11",55.94,53.96,,,
"USR0000ASIT","2001-12-12",55.94,55.04,,,
"USR0000ASIT","2001-12-13",55.94,53.96,,,
"USR0000ASIT","2001-12-14",53.06,51.08,,,
"USR0000ASIT","2001-12-15",51.08,48.92,,,
"USR0000ASIT","2001-12-16",51.98,50.00,,,
"USR0000ASIT","2001-12-17",53.06,51.08,,,
"USR0000ASIT","2001-12-18",51.98,51.08,,,
"USR0000ASIT","2001-12-19",53.06,51.08,,,
"USR0000ASIT","2001-12-20",53.96,51.08,,,
"USR0000ASIT","2001-12-21",53.96,51.98,,,
"USR0000ASIT","2001-12-22",53.96,53.06,,,
"USR0000ASIT","2001-12-24",53.96,53.96,,,
"USR0000ASIT","2001-12-25",57.02,53.96,,,
"USR0000ASIT","2001-12-26",59.00,55.94,,,
"USR0000ASIT","2001-12-27",57.92,55.94,,,
"USR0000ASIT","2001-12-28",59.00,57.02,,,
"USR0000ASIT","2001-12-29",60.98,59.00,,,
"USR0000ASIT","2001-12-30",60.98,60.08,,,
"USR0000ASIT","2001-12-31",62.06,60.08,,,
"USR0000ASIT","2002-01-01",62.06,60.98,,,
"USR0000ASIT","2002-01-02",64.04,62.06,,,
"USR0000ASIT","2002-01-03",62.06,59.00,,,
"USR0000ASIT","2002-01-04",57.92,55.04,,,
"USR0000ASIT","2002-01-05",60.98,57.92,,,
"USR0000ASIT","2002-01-06",62.06,60.98,,,
"USR0000ASIT","2002-01-07",62.06,59.00,,,
"USR0000ASIT","2002-01-08",60.08,57.92,,,
"USR0000ASIT","2002-01-09",59.00,39.92,,,
"USR0000ASIT","2002-01-10",57.02,35.96,,,
"USR0000ASIT","2002-01-11",59.00,55.94,,,
"USR0000ASIT","2002-01-12",59.00,55.94,,,
"USR0000ASIT","2002-01-13",55.94,53.96,,,
"USR0000ASIT","2002-01-14",55.04,53.06,,,
"USR0000ASIT","2002-01-15",57.92,53.06,,,
"USR0000ASIT","2002-01-16",59.00,55.94,,,
"USR0000ASIT","2002-01-17",57.92,48.92,,,
"USR0000ASIT","2002-01-18",60.98,57.92,,,
"USR0000ASIT","2002-01-19",60.98,57.92,,,
"USR0000ASIT","2002-01-20",57.92,55.94,,,
"USR0000ASIT","2002-01-21",57.02,53.96,,,
"USR0000ASIT","2002-01-22",55.04,53.06,,,
"USR0000ASIT","2002-01-23",55.04,53.06,,,
"USR0000ASIT","2002-01-24",51.98,50.00,,,
"USR0000ASIT","2002-01-25",50.00,46.94,,,
"USR0000ASIT","2002-01-26",50.00,46.94,,,
"USR0000ASIT","2002-01-27",48.92,48.02,,,
"USR0000ASIT","2002-01-28",50.00,50.00,,,
"USR0000ASIT","2002-01-29",55.04,50.00,,,
"USR0000ASIT","2002-01-30",59.00,55.04,,,
"USR0000ASIT","2002-01-31",57.92,55.94,,,
"USR0000ASIT","2002-02-01",59.00,53.96,,,
"USR0000ASIT","2002-02-02",57.92,57.02,,,
"USR0000ASIT","2002-02-03",57.02,53.96,,,
"USR0000ASIT","2002-02-04",57.92,53.96,,,
"USR0000ASIT","2002-02-05",55.94,53.96,,,
"USR0000ASIT","2002-02-06",57.02,55.04,,,
"USR0000ASIT","2002-02-07",59.00,53.96,,,
"USR0000ASIT","2002-02-08",57.92,53.96,,,
"USR0000ASIT","2002-02-09",57.02,55.04,,,
"USR0000ASIT","2002-02-10",55.94,53.96,,,
"USR0000ASIT","2002-02-11",57.92,53.06,,,
"USR0000ASIT","2002-02-12",55.94,53.06,,,
"USR0000ASIT","2002-02-13",53.96,53.06,,,
"USR0000ASIT","2002-02-14",57.92,53.06,,,
"USR0000ASIT","2002-02-15",57.92,55.94,,,
"USR0000ASIT","2002-02-16",57.92,53.96,,,
"USR0000ASIT","2002-02-17",57.92,55.04,,,
"USR0000ASIT","2002-02-18",57.02,55.94,,,
"USR0000ASIT","2002-02-19",55.94,55.04,,,
"USR0000ASIT","2002-02-20",55.04,53.06,,,
"USR0000ASIT","2002-02-21",55.94,51.08,,,
"USR0000ASIT","2002-02-22",53.06,50.00,,,
"USR0000ASIT","2002-02-23",53.06,51.08,,,
"USR0000ASIT","2002-02-24",55.94,53.06,,,
"USR0000ASIT","2002-02-25",57.92,53.96,,,
"USR0000ASIT","2002-02-26",55.94,53.06,,,
"USR0000ASIT","2002-02-27",60.08,55.94,,,
"USR0000ASIT","2002-02-28",59.00,53.06,,,
"USR0000ASIT","2002-03-01",57.92,55.04,,,
"USR0000ASIT","2002-03-02",57.92,55.94,,,
"USR0000ASIT","2002-03-03",55.94,51.98,,,
"USR0000ASIT","2002-03-04",53.96,51.08,,,
"USR0000ASIT","2002-03-05",55.94,53.96,,,
"USR0000ASIT","2002-03-06",55.04,53.06,,,
"USR0000ASIT","2002-03-07",57.92,53.06,,,
"USR0000ASIT","2002-03-08",55.94,55.04,,,
"USR0000ASIT","2002-03-09",55.04,53.96,,,
"USR0000ASIT","2002-03-10",55.04,51.98,,,
"USR0000ASIT","2002-03-11",53.06,51.98,,,
"USR0000ASIT","2002-03-12",53.06,50.00,,,
"USR0000ASIT","2002-03-13",53.06,50.00,,,
"USR0000ASIT","2002-03-14",57.92,53.06,,,
"USR0000ASIT","2002-03-15",57.02,55.04,,,
"USR0000ASIT","2002-03-16",55.04,53.06,,,
"USR0000ASIT","2002-03-17",55.94,53.06,,,
"USR0000ASIT","2002-03-18",59.00,55.94,,,
"USR0000ASIT","2002-03-19",59.00,57.92,,,
"USR0000ASIT","2002-03-20",60.98,59.00,,,
"USR0000ASIT","2002-03-21",59.00,55.94,,,
"USR0000ASIT","2002-03-22",57.92,55.94,,,
"USR0000ASIT","2002-03-23",60.08,57.92,,,
"USR0000ASIT","2002-03-24",57.92,55.94,,,
"USR0000ASIT","2002-03-25",59.00,57.02,,,
"USR0000ASIT","2002-03-26",59.00,59.00,,,
"USR0000ASIT","2002-03-27",57.02,57.02,,,
"USR0000ASIT","2002-03-28",62.06,57.92,,,
"USR0000ASIT","2002-03-29",60.08,57.92,,,
"USR0000ASIT","2002-03-30",57.92,55.04,,,
"USR0000ASIT","2002-03-31",55.04,51.08,,,
"USR0000ASIT","2002-04-01",55.94,53.96,,,
"USR0000ASIT","2002-04-02",55.94,55.04,,,
"USR0000ASIT","2002-04-03",55.94,53.96,,,
"USR0000ASIT","2002-04-04",60.08,55.94,,,
"USR0000ASIT","2002-04-05",59.00,55.04,,,
"USR0000ASIT","2002-04-06",57.92,55.94,,,
"USR0000ASIT","2002-04-07",60.08,57.92,,,
"USR0000ASIT","2002-04-08",60.98,60.08,,,
"USR0000ASIT","2002-04-09",60.98,60.08,,,
"USR0000ASIT","2002-04-10",60.08,57.92,,,
"USR0000ASIT","2002-04-11",57.92,55.04,,,
"USR0000ASIT","2002-04-12",55.04,53.96,,,
"USR0000ASIT","2002-04-13",55.04,53.96,,,
"USR0000ASIT","2002-04-14",57.02,55.04,,,
"USR0000ASIT","2002-04-15",57.02,55.94,,,
"USR0000ASIT","2002-04-16",59.00,55.04,,,
"USR0000ASIT","2002-04-17",55.04,53.06,,,
"USR0000ASIT","2002-04-18",53.06,50.00,,,
"USR0000ASIT","2002-04-19",53.96,51.98,,,
"USR0000ASIT","2002-04-20",55.94,55.04,,,
"USR0000ASIT","2002-04-21",55.04,55.04,,,
"USR0000ASIT","2002-04-22",57.92,55.04,,,
"USR0000ASIT","2002-04-23",57.92,55.94,,,
"USR0000ASIT","2002-04-24",62.06,59.00,,,
"USR0000ASIT","2002-04-25",64.94,60.98,,,
"USR0000ASIT","2002-04-26",62.96,60.98,,,
"USR0000ASIT","2002-04-27",64.04,60.98,,,
"USR0000ASIT","2002-04-28",64.04,62.96,,,
"USR0000ASIT","2002-04-29",66.92,64.04,,,
"USR0000ASIT","2002-04-30",66.92,62.96,,,
"USR0000ASIT","2002-05-01",62.96,60.98,,,
"USR0000ASIT","2002-05-02",66.02,60.08,,,
"USR0000ASIT","2002-05-03",64.04,62.06,,,
"USR0000ASIT","2002-05-04",66.02,62.96,,,
"USR0000ASIT","2002-05-05",64.04,62.06,,,
"USR0000ASIT","2002-05-06",62.06,60.08,,,
"USR0000ASIT","2002-05-07",62.96,60.98,,,
"USR0000ASIT","2002-05-08",62.96,60.08,,,
"USR0000ASIT","2002-05-09",60.98,60.08,,,
"USR0000ASIT","2002-05-10",64.04,62.96,,,
"USR0000ASIT","2002-05-11",64.04,62.96,,,
"USR0000ASIT","2002-05-12",66.02,64.04,,,
"USR0000ASIT","2002-05-13",66.92,64.94,,,
"USR0000ASIT","2002-05-14",69.08,66.92,,,
"USR0000ASIT","2002-05-15",69.98,68.00,,,
"USR0000ASIT","2002-05-16",71.06,66.92,,,
"USR0000ASIT","2002-05-17",69.08,66.92,,,
"USR0000ASIT","2002-05-18",71.06,68.00,,,
"USR0000ASIT","2002-05-19",73.94,71.06,,,
"USR0000ASIT","2002-05-20",75.92,73.94,,,
"USR0000ASIT","2002-05-21",78.08,75.92,,,
"USR0000ASIT","2002-05-22",77.00,75.02,,,
"USR0000ASIT","2002-05-23",78.08,73.94,,,
"USR0000ASIT","2002-05-24",77.00,73.94,,,
"USR0000ASIT","2002-05-25",78.98,77.00,,,
"USR0000ASIT","2002-05-26",78.98,73.94,,,
"USR0000ASIT","2002-05-27",77.00,73.94,,,
"USR0000ASIT","2002-05-28",77.00,73.94,,,
"USR0000ASIT","2002-05-29",77.00,73.94,,,
"USR0000ASIT","2002-05-30",73.94,41.00,,,
"USR0000ASIT","2002-05-31",51.08,46.94,,,
"USR0000ASIT","2002-06-01",51.08,48.02,,,
"USR0000ASIT","2002-06-02",50.00,48.92,,,
"USR0000ASIT","2002-06-03",51.98,50.00,,,
"USR0000ASIT","2002-06-04",51.98,46.94,,,
"USR0000ASIT","2002-06-05",51.08,48.02,,,
"USR0000ASIT","2002-06-06",51.98,46.94,,,
"USR0000ASIT","2002-06-07",50.00,48.02,,,
"USR0000ASIT","2002-06-08",50.00,46.94,,,
"USR0000ASIT","2002-06-09",50.00,46.94,,,
"USR0000ASIT","2002-06-10",48.92,46.04,,,
"USR0000ASIT","2002-06-11",50.00,46.94,,,
"USR0000ASIT","2002-06-12",53.06,50.00,,,
"USR0000ASIT","2002-06-13",53.96,48.92,,,
"USR0000ASIT","2002-06-14",51.98,48.02,,,
"USR0000ASIT","2002-06-15",59.00,51.08,,,
"USR0000ASIT","2002-06-16",62.96,57.02,,,
"USR0000ASIT","2002-06-17",64.94,62.96,,,
"USR0000ASIT","2002-06-18",64.04,60.98,,,
"USR0000ASIT","2002-06-19",62.06,50.00,,,
"USR0000ASIT","2002-06-20",55.94,51.98,,,
"USR0000ASIT","2002-06-21",55.94,51.98,,,
"USR0000ASIT","2002-06-22",57.92,53.96,,,
"USR0000ASIT","2002-06-23",57.92,53.96,,,
"USR0000ASIT","2002-06-24",57.92,53.96,,,
"USR0000ASIT","2002-06-25",57.02,53.96,,,
"USR0000ASIT","2002-06-26",57.02,53.96,,,
"USR0000ASIT","2002-06-27",57.92,53.96,,,
"USR0000ASIT","2002-06-28",59.00,53.06,,,
"USR0000ASIT","2002-06-29",62.06,55.04,,,
"USR0000ASIT","2002-06-30",62.96,55.94,,,
"USR0000ASIT","2002-07-01",62.96,53.96,,,
"USR0000ASIT","2002-07-02",57.92,53.96,,,
"USR0000ASIT","2002-07-03",59.00,55.04,,,
"USR0000ASIT","2002-07-04",59.00,53.96,,,
"USR0000ASIT","2002-07-05",60.08,53.06,,,
"USR0000ASIT","2002-07-06",53.96,51.08,,,
"USR0000ASIT","2002-07-07",60.98,51.08,,,
"USR0000ASIT","2002-07-08",62.06,60.08,,,
"USR0000ASIT","2002-07-09",60.98,55.04,,,
"USR0000ASIT","2002-07-10",60.08,53.96,,,
"USR0000ASIT","2002-07-11",62.96,60.08,,,
"USR0000ASIT","2002-07-12",62.96,62.06,,,
"USR0000ASIT","2002-07-13",62.96,60.98,,,
"USR0000ASIT","2002-07-14",62.96,60.98,,,
"USR0000ASIT","2002-07-15",62.06,60.08,,,
"USR0000ASIT","2002-07-16",64.04,55.94,,,
"USR0000ASIT","2002-07-17",66.02,60.98,,,
"USR0000ASIT","2002-07-18",66.02,59.00,,,
"USR0000ASIT","2002-07-19",62.06,60.98,,,
"USR0000ASIT","2002-07-20",62.96,60.98,,,
"USR0000ASIT","2002-07-21",62.96,60.98,,,
"USR0000ASIT","2002-07-22",62.06,60.08,,,
"USR0000ASIT","2002-07-23",64.04,60.98,,,
"USR0000ASIT","2002-07-24",62.06,60.08,,,
"USR0000ASIT","2002-07-25",60.98,55.04,,,
"USR0000ASIT","2002-07-26",55.04,51.08,,,
"USR0000ASIT","2002-07-27",55.94,51.98,,,
"USR0000ASIT","2002-07-28",55.94,53.06,,,
"USR0000ASIT","2002-07-29",55.94,51.98,,,
"USR0000ASIT","2002-07-30",59.00,53.96,,,
"USR0000ASIT","2002-07-31",64.04,59.00,,,
"USR0000ASIT","2002-08-01",64.94,62.06,,,
"USR0000ASIT","2002-08-02",66.92,62.06,,,
"USR0000ASIT","2002-08-03",69.98,66.02,,,
"USR0000ASIT","2002-08-04",71.06,69.08,,,
"USR0000ASIT","2002-08-05",71.06,66.02,,,
"USR0000ASIT","2002-08-06",64.94,59.00,,,
"USR0000ASIT","2002-08-07",60.98,57.92,,,
"USR0000ASIT","2002-08-08",57.92,57.02,,,